This is the latest recevied weather packets stored in our database for station/object KB1JL-13. If no packets are shown the sender has not sent any weather packets the latest 10 day(s).
| Time | Temp. | Humidity | Pressure | Rain* | Wind** | Luminosity | Snow |
|---|---|---|---|---|---|---|---|
| 1777526927 | 8.33° C | 99% | 1021.2 hPa | 3.05 mm | - | 0 W/m² | - |
| 1777526622 | 8.33° C | 99% | 1021.2 hPa | 1.78 mm | - | 0 W/m² | - |
| 1777526317 | 8.33° C | 99% | 1021.6 hPa | 1.27 mm | - | 0 W/m² | - |
| 1777526013 | 8.33° C | 99% | 1021.6 hPa | 1.27 mm | - | 0 W/m² | - |
| 1777525710 | 8.33° C | 99% | 1021.9 hPa | 1.78 mm | - | 0 W/m² | - |
| 1777525408 | 8.89° C | 99% | 1021.6 hPa | 1.78 mm | - | 0 W/m² | - |
| 1777525103 | 8.89° C | 99% | 1021.9 hPa | 1.27 mm | - | 0 W/m² | - |
| 1777524800 | 8.89° C | 99% | 1021.9 hPa | 1.27 mm | - | 0 W/m² | - |
| 1777524499 | 8.89° C | 99% | 1022.2 hPa | 1.78 mm | - | 0 W/m² | - |
| 1777524195 | 8.89° C | 99% | 1022.2 hPa | 1.78 mm | - | 0 W/m² | - |
| 1777523891 | 8.89° C | 99% | 1022.2 hPa | 1.27 mm | - | 0 W/m² | - |
| 1777523588 | 8.89° C | 99% | 1022.2 hPa | 1.27 mm | - | 0 W/m² | - |
| 1777523284 | 8.89° C | 99% | 1021.9 hPa | 1.78 mm | - | 0 W/m² | - |
| 1777522979 | 8.89° C | 98% | 1022.2 hPa | 1.78 mm | - | 0 W/m² | - |
| 1777522677 | 8.89° C | 98% | 1022.6 hPa | 0 mm | - | 0 W/m² | - |
| 1777522374 | 8.89° C | 98% | 1022.2 hPa | 1.27 mm | - | 0 W/m² | - |
| 1777522071 | 9.44° C | 97% | 1022.6 hPa | 1.27 mm | - | 0 W/m² | - |
| 1777521768 | 9.44° C | 97% | 1022.6 hPa | 1.78 mm | - | 0 W/m² | - |
| 1777521464 | 9.44° C | 96% | 1022.6 hPa | 1.78 mm | - | 0 W/m² | - |
| 1777521161 | 9.44° C | 96% | 1022.6 hPa | 1.78 mm | - | 0 W/m² | - |
| 1777520859 | 9.44° C | 95% | 1022.6 hPa | 0 mm | - | 0 W/m² | - |
| 1777520556 | 9.44° C | 94% | 1022.2 hPa | 0 mm | - | 0 W/m² | - |
| 1777520252 | 9.44° C | 94% | 1022.6 hPa | 0 mm | - | 0 W/m² | - |
| 1777519951 | 9.44° C | 93% | 1022.2 hPa | 0 mm | - | 0 W/m² | - |
| 1777519647 | 9.44° C | 93% | 1022.6 hPa | 0 mm | - | 0 W/m² | - |
* Rain latest hour (hover to see other rain measurements)
** Current wind speed in m/s (hover to see current wind gust speed)